Tracking 19476 objects as of 18-Jan-2019
HD Live streaming from Space Station
objects crossing your sky now

LEMUR 2 ROMACOSTE

Track LEMUR 2 ROMACOSTE now!
10-day predictions
LEMUR 2 ROMACOSTE is classified as:


NORAD ID: 43048
Int'l Code: 2017-071M
Perigee: 445.4 km
Apogee: 449.3 km
Inclination: 51.6 °
Period: 93.4 minutes
Semi major axis: 6818 km
RCS: Unknown
Launch date: November 12, 2017
Source: United States (US)
Launch site: WALLOPS ISLAND (WLPIS)
aabbcc
Your satellite tracking list
Your tracking list is empty




NASA's NSSDC Master Catalog

Two Line Element Set (TLE):
1 43048U 17071M   19017.62036855  .00004618  00000-0  11607-3 0  9995
2 43048  51.6399  73.2208 0002870   3.9267 356.1740 15.41985868 62683
Source of the keplerian elements: AFSPC